TimeEST,TemperatureF,Dew PointF,Humidity,Sea Level PressureIn,VisibilityMPH,Wind Direction,Wind SpeedMPH,Gust SpeedMPH,PrecipitationIn,Events,Conditions,WindDirDegrees,DateUTC
12:01 AM,50.0,48.2,94,29.86,6.0,NNW,12.7,-,0.01,Rain,Rain,330,2012-12-05 05:01:00
12:17 AM,50.0,46.4,87,29.85,6.0,NNW,9.2,-,0.05,Rain,Light Rain,330,2012-12-05 05:17:00
12:54 AM,50.0,46.9,89,29.86,8.0,Calm,Calm,-,0.05,Rain,Light Rain,0,2012-12-05 05:54:00
1:54 AM,48.9,46.9,93,29.86,4.0,Calm,Calm,-,0.09,Rain,Light Rain,0,2012-12-05 06:54:00
2:40 AM,48.2,46.4,93,29.88,5.0,Calm,Calm,-,0.09,Rain,Rain,0,2012-12-05 07:40:00
2:54 AM,48.9,46.0,90,29.88,4.0,Calm,Calm,-,0.12,Rain,Rain,0,2012-12-05 07:54:00
3:06 AM,48.2,46.4,93,29.87,3.0,Calm,Calm,-,0.04,Rain,Rain,0,2012-12-05 08:06:00
3:54 AM,48.9,45.0,86,29.87,10.0,SW,3.5,-,0.08,,Overcast,220,2012-12-05 08:54:00
4:54 AM,48.0,44.1,86,29.86,10.0,Calm,Calm,-,N/A,,Overcast,0,2012-12-05 09:54:00
5:54 AM,48.0,39.9,74,29.88,10.0,WSW,13.8,-,N/A,,Mostly Cloudy,240,2012-12-05 10:54:00
6:54 AM,48.0,33.1,56,29.90,10.0,West,13.8,24.2,N/A,,Mostly Cloudy,270,2012-12-05 11:54:00
7:54 AM,46.9,35.1,63,29.91,10.0,WNW,6.9,-,N/A,,Mostly Cloudy,300,2012-12-05 12:54:00
9:47 AM,42.8,28.4,57,29.94,10.0,West,24.2,35.7,0.00,,Mostly Cloudy,280,2012-12-05 14:47:00
9:54 AM,43.0,28.9,58,29.96,10.0,West,21.9,35.7,0.00,,Mostly Cloudy,270,2012-12-05 14:54:00
10:54 AM,39.0,30.0,70,30.01,10.0,North,16.1,20.7,0.00,,Mostly Cloudy,350,2012-12-05 15:54:00
11:54 AM,37.9,25.0,60,30.02,10.0,WNW,18.4,24.2,0.00,,Mostly Cloudy,300,2012-12-05 16:54:00
12:54 PM,36.0,25.0,64,30.03,10.0,NW,17.3,-,N/A,,Overcast,320,2012-12-05 17:54:00
1:54 PM,36.0,21.9,57,30.05,10.0,WNW,15.0,23.0,N/A,,Mostly Cloudy,300,2012-12-05 18:54:00
2:54 PM,34.0,24.1,67,30.08,8.0,NW,11.5,19.6,0.00,Snow,Light Snow,310,2012-12-05 19:54:00
3:54 PM,33.1,19.0,56,30.12,10.0,NW,20.7,26.5,0.00,,Mostly Cloudy,320,2012-12-05 20:54:00
4:54 PM,32.0,19.9,61,30.14,10.0,NNW,9.2,19.6,0.00,,Mostly Cloudy,340,2012-12-05 21:54:00
5:54 PM,30.9,19.0,61,30.18,10.0,NW,19.6,26.5,0.00,Snow,Light Snow,320,2012-12-05 22:54:00
6:28 PM,28.4,21.2,74,30.18,2.0,NNW,18.4,26.5,0.00,Snow,Light Snow,340,2012-12-05 23:28:00
6:35 PM,28.4,23.0,80,30.17,1.5,NW,13.8,24.2,0.00,Snow,Light Snow,310,2012-12-05 23:35:00
6:42 PM,28.4,23.0,80,30.17,5.0,NW,11.5,-,0.00,Snow,Light Snow,310,2012-12-05 23:42:00
6:54 PM,28.9,21.9,75,30.18,9.0,WNW,10.4,-,0.00,Snow,Light Snow,300,2012-12-05 23:54:00
7:54 PM,30.0,18.0,61,30.21,9.0,NW,19.6,24.2,0.00,Snow,Light Snow,310,2012-12-06 00:54:00
8:54 PM,30.0,18.0,61,30.22,10.0,NNW,15.0,25.3,0.00,,Overcast,330,2012-12-06 01:54:00
9:54 PM,30.0,16.0,56,30.24,9.0,NNW,21.9,25.3,0.00,Snow,Light Snow,330,2012-12-06 02:54:00
10:54 PM,30.0,16.0,56,30.25,10.0,NNW,20.7,27.6,0.00,,Overcast,330,2012-12-06 03:54:00
11:54 PM,28.9,16.0,58,30.26,10.0,NNW,17.3,27.6,N/A,,Overcast,330,2012-12-06 04:54:00